Location: ?????
(37.7324°N, 23.9257°E)
Time: 07:18:01
(UTC+00:00)

Cosmos 2184 Rocket - Pass Details

Date: 29 November 2020
Orbit: 958 x 1003 km, 82.9° (Epoch: 17 January)

Event Time Altitude Azimuth Distance (km) Brightness Sun altitude
Rises 03:58:02 0° 193° (SSW) 3,672 7.0 -15.8°
Reaches altitude 10° 04:00:33 10° 196° (SSW) 2,734 6.3 -15.3°
Maximum altitude 04:06:47 66° 278° (W) 1,079 4.0 -14.1°
Drops below altitude 10° 04:13:08 10° 1° (N) 2,776 6.2 -12.9°
Sets 04:15:43 0° 4° (N) 3,732 6.9 -12.4°
